This is the latest recevied weather packets stored in our database for station/object KI5RAB. If no packets are shown the sender has not sent any weather packets the latest 10 day(s).
| Time | Temp. | Humidity | Pressure | Rain* | Wind** | Luminosity | Snow |
|---|---|---|---|---|---|---|---|
| 1788220762 | 35.56° C | 43% | 1016 hPa | 0 mm | - | 53 W/m² | - |
| 1788220457 | 35.56° C | 44% | 1015.8 hPa | 0 mm | - | 69 W/m² | - |
| 1788220152 | 35.56° C | 44% | 1015.8 hPa | 0 mm | - | 87 W/m² | - |
| 1788219851 | 35.56° C | 43% | 1015.8 hPa | 0 mm | - | 95 W/m² | - |
| 1788219547 | 36.11° C | 44% | 1016 hPa | 0 mm | - | 87 W/m² | - |
| 1788219242 | 35.56° C | 42% | 1015.9 hPa | 0 mm | - | 136 W/m² | - |
| 1788218937 | 35.56° C | 43% | 1015.8 hPa | 0 mm | - | 126 W/m² | - |
| 1788218633 | 36.11° C | 42% | 1015.8 hPa | 0 mm | - | 122 W/m² | - |
| 1788218329 | 35.56° C | 42% | 1015.7 hPa | 0 mm | - | 118 W/m² | - |
| 1788218025 | 35.56° C | 42% | 1016 hPa | 0 mm | - | 134 W/m² | - |
| 1788217721 | 35.56° C | 43% | 1016 hPa | 0 mm | - | 116 W/m² | - |
| 1788217416 | 36.11° C | 44% | 1016.1 hPa | 0 mm | - | 160 W/m² | - |
| 1788217116 | 36.11° C | 43% | 1016.1 hPa | 0 mm | - | 168 W/m² | - |
| 1788216810 | 36.11° C | 44% | 1016.2 hPa | 0 mm | - | 201 W/m² | - |
| 1788216507 | 36.11° C | 43% | 1016.1 hPa | 0 mm | - | 218 W/m² | - |
| 1788216201 | 36.11° C | 44% | 1016.1 hPa | 0 mm | - | 240 W/m² | - |
| 1788215896 | 35.56° C | 43% | 1016.2 hPa | 0 mm | - | 252 W/m² | - |
| 1788215593 | 35.56° C | 44% | 1016.1 hPa | 0 mm | - | 277 W/m² | - |
| 1788215289 | 36.11° C | 45% | 1016.3 hPa | 0 mm | - | 291 W/m² | - |
| 1788214984 | 35.56° C | 45% | 1016.4 hPa | 0 mm | - | 310 W/m² | - |
| 1788214679 | 35.56° C | 45% | 1016.3 hPa | 0 mm | - | 318 W/m² | - |
| 1788214375 | 35.56° C | 46% | 1016.4 hPa | 0 mm | - | 327 W/m² | - |
| 1788214075 | 35° C | 47% | 1016.3 hPa | 0 mm | - | 144 W/m² | - |
| 1788213770 | 35° C | 46% | 1016.3 hPa | 0 mm | - | 73 W/m² | - |
| 1788213464 | 35.56° C | 45% | 1016.6 hPa | 0 mm | - | 107 W/m² | - |
* Rain latest hour (hover to see other rain measurements)
** Current wind speed in m/s (hover to see current wind gust speed)